[[{"header":{"parameterUnit":"m.s-1","parameterCategory":1,"la1":30.2991,"la2":30.254,"lo1":-89.0895,"lo2":-89.0444,"dy":0.0017,"dx":0.0017,"nx":28,"ny":28,"refTime":"2025-02-09T03:00:00:Z","depth":0,"parameterNumber":2,"parameterNumberName":"U-component_of_WINDS"},"data":[0,0,0,0,0,0,0,0,0,0,0,0,0,0,0,0,0,0,0,0,0,0,0,0,0,0,0,0,0,0,0,0,0,0,0,0,0,0,0,0,0,0,0,0,0,0,0,0,0,0,0,0,0,0,0,0,0,0,0.4389,0.4391,0,0.45,0.4501,0.4503,0.4541,0.4541,0.454,0.454,0.4657,0.4661,0.4664,0,0,0,0,0,0,0,0,0,0,0,0,0,0.4215,0.4218,0.4389,0.4391,0.4392,0.45,0.4501,0.4503,0.4541,0.4541,0.454,0.4539,0.4656,0.466,0.4664,0,0,0,0,0,0,0,0,0,0,0,0,0,0.4305,0.4219,0.4389,0.4424,0.4428,0.45,0.4502,0.4503,0.4541,0.4541,0.454,0.4539,0.4655,0.466,0.4665,0.4711,0,0,0.4681,0.4683,0,0,0,0,0,0,0,0,0.43,0.4311,0.4417,0.4422,0.4427,0.4506,0.4483,0.4573,0.4541,0.4498,0.454,0.4539,0.4608,0.4617,0.4639,0.4716,0.4722,0.4682,0.4685,0.4687,0.4689,0,0,0,0,0,0,0,0.4293,0.4307,0.4433,0.4419,0.4425,0.4436,0.4448,0.45,0.4556,0.4502,0.4505,0.4517,0.461,0.4634,0.4642,0.4723,0.4682,0.4686,0.4689,0.4692,0.4845,0.4846,0,0,0,0,0,0,0.4281,0.4301,0.443,0.4437,0.436,0.4439,0.4453,0.4481,0.4555,0.4566,0.4518,0.4519,0.4625,0.4636,0.4646,0.4706,0.4687,0.4692,0.4695,0.4845,0.4846,0.4847,0,0,0,0,0,0,0.4277,0.4292,0.4425,0.437,0.4388,0.4443,0.4475,0.4484,0.4508,0.4567,0.4577,0.4532,0.4625,0.4639,0.4695,0.4711,0.4694,0.4699,0.4843,0.4845,0.4846,0.4825,0,0,0,0,0,0,0.4272,0.429,0.4307,0.437,0.439,0.447,0.4476,0.4486,0.4516,0.4518,0.4583,0.4593,0.4626,0.4687,0.47,0.4718,0.4703,0.4842,0.4844,0.4846,0.4825,0.4825,0.4826,0,0,0,0,0,0.4265,0.4297,0.4308,0.4323,0.4412,0.4471,0.4483,0.4519,0.4517,0.4536,0.4574,0.4591,0.4706,0.4692,0.4707,0.4727,0.4842,0.4844,0.4846,0.4824,0.4825,0.4826,0,0,0,0,0,0,0.4236,0.4306,0.4319,0.4372,0.4415,0.4477,0.4501,0.4519,0.4564,0.4565,0.4609,0.4623,0.4675,0.4707,0.4689,0.4776,0.4775,0.478,0.4754,0.4755,0.4756,0.4748,0.4708,0,0,0,0,0,0.4236,0.4276,0.4336,0.4377,0.4398,0.4446,0.4473,0.4496,0.4544,0.4563,0.4605,0.4651,0.4698,0.4728,0.4775,0.4829,0.4845,0.485,0.4851,0.4852,0.4856,0.4888,0.4892,0.4853,0.4853,0.4853,0,0,0.4236,0.4279,0.4302,0.4372,0.4409,0.4451,0.4461,0.4505,0.4537,0.457,0.4625,0.4657,0.4712,0.4768,0.4794,0.4796,0.487,0.4854,0.4854,0.4858,0.4891,0.4894,0.4897,0.4855,0.4854,0.4854,0,0,0.4258,0.4294,0.4332,0.4368,0.4423,0.4455,0.4464,0.4524,0.4547,0.4602,0.4628,0.4668,0.4747,0.4785,0.4815,0.4852,0.487,0.4866,0.4871,0.4902,0.4905,0.4908,0.4922,0.4926,0.487,0.487,0.487,0,0.4251,0.4314,0.435,0.4393,0.4424,0.4454,0.4494,0.4528,0.4596,0.4617,0.4617,0.4718,0.4757,0.4822,0.4831,0.4854,0.4867,0.4859,0.4901,0.4904,0.4908,0.4922,0.4927,0.4869,0.4869,0.4869,0.4869,0,0.4304,0.4348,0.4373,0.4436,0.4469,0.4511,0.4554,0.4584,0.4605,0.4638,0.4695,0.4742,0.4799,0.4817,0.4838,0.4885,0.4885,0.4892,0.4892,0.491,0.4924,0.493,0.4868,0.4868,0.4868,0.4869,0,0,0.4311,0.4393,0.4402,0.4431,0.4494,0.4529,0.4573,0.4627,0.4653,0.4698,0.4737,0.4804,0.4811,0.4845,0.4871,0.4898,0.4926,0.4903,0.4905,0.4907,0.4983,0.4977,0.4982,0.4938,0.4939,0.494,0.4978,0,0.4341,0.4418,0.4452,0.4515,0.4557,0.4586,0.4624,0.4668,0.4699,0.474,0.4776,0.4823,0.4828,0.4849,0.4877,0.4916,0.4942,0.4914,0.4976,0.4977,0.4961,0.499,0.4984,0.5018,0.4984,0.4985,0.4985,0,0.4387,0.4432,0.4498,0.4556,0.4575,0.4609,0.4662,0.47,0.4751,0.4772,0.481,0.4835,0.4883,0.4879,0.4947,0.4928,0.4955,0.4978,0.498,0.4988,0.4983,0.4999,0.5029,0.5034,0.4994,0.4994,0.4993,0,0.4386,0.4463,0.4513,0.4537,0.4606,0.4629,0.466,0.4709,0.474,0.4787,0.4808,0.4861,0.489,0.493,0.4969,0.4963,0.5034,0.5034,0.5055,0.5054,0.5069,0.5068,0.5105,0.5085,0.5085,0.5085,0.5085,0,0.4417,0.4456,0.4514,0.4544,0.459,0.463,0.4675,0.4707,0.4751,0.479,0.4819,0.4855,0.4904,0.4947,0.4978,0.503,0.5043,0.5063,0.5071,0.5061,0.5058,0.508,0.5079,0.5086,0.5086,0.5086,0.5085,0,0.4424,0.4463,0.452,0.4581,0.4597,0.4628,0.4681,0.4713,0.4746,0.4795,0.4808,0.486,0.4912,0.4955,0.5023,0.5044,0.51,0.5108,0.5082,0.5086,0.5105,0.5103,0.5158,0.5168,0.514,0.5141,0.5141,0,0.4441,0.4472,0.4536,0.4563,0.4593,0.4637,0.4669,0.4709,0.4741,0.4801,0.4826,0.488,0.4925,0.5007,0.5052,0.5105,0.5116,0.5131,0.5124,0.5113,0.5117,0.5115,0.5119,0.5132,0.5132,0.5132,0.5132,0,0.4468,0.4486,0.4529,0.458,0.4617,0.4659,0.4703,0.4724,0.4773,0.4807,0.486,0.4895,0.4965,0.5018,0.5076,0.5109,0.513,0.5134,0.5142,0.5133,0.5116,0.5126,0.5085,0.5133,0.5133,0.5133,0.5133,0.5133,0.4481,0.451,0.456,0.4608,0.4645,0.4685,0.4718,0.4754,0.4799,0.4858,0.4879,0.4934,0.4985,0.5065,0.5098,0.5142,0.5144,0.5155,0.5159,0.5161,0.516,0.5109,0.5153,0.5153,0.5153,0.5153,0.5153,0,0.451,0.4543,0.4587,0.4646,0.4685,0.4699,0.4748,0.4779,0.4827,0.4872,0.4916,0.4977,0.5029,0.5078,0.5134,0.516,0.5171,0.5173,0.5172,0.5179,0.5154,0.5142,0.5163,0.5163,0.5163,0.5163,0.5163,0.5163,0.453,0.458,0.4605,0.4674,0.4708,0.4761,0.4788,0.4825,0.4862,0.4929,0.4972,0.5003,0.505,0.5109,0.5158,0.5172,0.5191,0.5191,0.5207,0.5183,0.5181,0.518,0.5169,0.5195,0.5195,0.5229,0.5229,0.5229]},{"header":{"parameterUnit":"m.s-1","parameterCategory":1,"la1":30.2991,"la2":30.254,"lo1":-89.0895,"lo2":-89.0444,"dy":0.0017,"dx":0.0017,"nx":28,"ny":28,"refTime":"2025-02-09T03:00:00:Z","depth":0,"parameterNumber":3,"parameterNumberName":"V-component_of_WINDS"},"data":[0,0,0,0,0,0,0,0,0,0,0,0,0,0,0,0,0,0,0,0,0,0,0,0,0,0,0,0,0,0,0,0,0,0,0,0,0,0,0,0,0,0,0,0,0,0,0,0,0,0,0,0,0,0,0,0,0,0,1.8911,1.8913,0,1.9118,1.9121,1.9123,1.9205,1.9204,1.9204,1.9203,1.9414,1.942,1.9426,0,0,0,0,0,0,0,0,0,0,0,0,0,1.8586,1.8591,1.891,1.8913,1.8916,1.9118,1.9121,1.9123,1.9205,1.9204,1.9204,1.9203,1.9412,1.9419,1.9426,0,0,0,0,0,0,0,0,0,0,0,0,0,1.8753,1.8593,1.891,1.8981,1.8989,1.9117,1.9121,1.9124,1.9205,1.9204,1.9204,1.9203,1.9409,1.9418,1.9427,1.95,0,0,1.9455,1.9459,0,0,0,0,0,0,0,0,1.8744,1.8765,1.8968,1.8976,1.8986,1.9135,1.9083,1.925,1.9205,1.9123,1.9203,1.9203,1.9321,1.9338,1.9378,1.9509,1.9518,1.9456,1.9462,1.9466,1.9468,0,0,0,0,0,0,0,1.8732,1.8757,1.8993,1.8971,1.8982,1.9003,1.9025,1.9115,1.9224,1.913,1.9137,1.916,1.9326,1.9369,1.9384,1.9521,1.9456,1.9464,1.947,1.9473,1.9726,1.9727,0,0,0,0,0,0,1.8709,1.8746,1.8986,1.8999,1.886,1.9009,1.9035,1.9088,1.9223,1.9243,1.9161,1.9163,1.9354,1.9373,1.9392,1.9488,1.9465,1.9474,1.9479,1.9724,1.9726,1.9727,0,0,0,0,0,0,1.8701,1.8729,1.8978,1.8875,1.8908,1.9015,1.9074,1.9092,1.9136,1.9247,1.9266,1.9185,1.9354,1.9379,1.9473,1.9496,1.9478,1.9486,1.9723,1.9725,1.9727,1.9678,0,0,0,0,0,0,1.8692,1.8726,1.8754,1.8875,1.8913,1.9055,1.9076,1.9097,1.9151,1.9157,1.9274,1.9293,1.9356,1.9459,1.9482,1.9508,1.9494,1.9721,1.9724,1.9726,1.9678,1.9678,1.9678,0,0,0,0,0,1.868,1.8731,1.8755,1.8784,1.895,1.9056,1.9078,1.915,1.9153,1.9183,1.9254,1.9289,1.949,1.9468,1.9495,1.9524,1.972,1.9723,1.9726,1.9678,1.9678,1.9678,0,0,0,0,0,0,1.8609,1.8748,1.8776,1.8868,1.895,1.907,1.911,1.9147,1.9229,1.9231,1.9315,1.9341,1.9429,1.9486,1.9459,1.9603,1.9608,1.9616,1.9562,1.9563,1.9563,1.9548,1.9501,0,0,0,0,0,1.8605,1.8679,1.8796,1.8866,1.8906,1.9001,1.9049,1.9098,1.9186,1.922,1.9299,1.9382,1.9465,1.9517,1.9598,1.9687,1.9715,1.972,1.972,1.972,1.9726,1.978,1.9784,1.9736,1.9736,1.9736,0,0,1.8596,1.8681,1.8722,1.8854,1.8924,1.9,1.9029,1.9107,1.9165,1.9232,1.9327,1.9387,1.9487,1.9579,1.9623,1.9629,1.9745,1.9723,1.9722,1.9729,1.9783,1.9787,1.9791,1.9738,1.9738,1.9738,0,0,1.8618,1.8689,1.8757,1.8826,1.8931,1.8994,1.901,1.9126,1.9169,1.9265,1.9318,1.9388,1.9527,1.9596,1.965,1.9702,1.9738,1.9726,1.9725,1.9777,1.9781,1.9784,1.9805,1.9811,1.9731,1.9731,1.9731,0,1.8594,1.871,1.8786,1.8863,1.8921,1.8987,1.9056,1.912,1.9245,1.9284,1.9288,1.9467,1.9537,1.9648,1.9661,1.9702,1.9724,1.9713,1.9774,1.9779,1.9783,1.9804,1.9811,1.9729,1.973,1.973,1.973,0,1.8676,1.8756,1.8798,1.892,1.8982,1.9054,1.9142,1.9196,1.9239,1.9302,1.9401,1.9489,1.9591,1.9621,1.9663,1.9739,1.9739,1.9757,1.9765,1.9785,1.9805,1.9814,1.9727,1.9727,1.9728,1.9728,0,0,1.8659,1.8824,1.8838,1.8895,1.9017,1.9081,1.9157,1.9258,1.9304,1.9388,1.9456,1.9573,1.9592,1.9653,1.9704,1.9749,1.9787,1.9763,1.9766,1.9766,1.9879,1.9865,1.9872,1.9812,1.9814,1.9815,1.9871,0,1.8699,1.8839,1.8911,1.9021,1.9097,1.9162,1.9229,1.9311,1.9372,1.9446,1.9514,1.9597,1.9615,1.9652,1.9699,1.9772,1.9811,1.9769,1.9876,1.9879,1.985,1.9883,1.9868,1.9917,1.9879,1.9881,1.9882,0,1.8764,1.885,1.8968,1.9084,1.9118,1.9177,1.9277,1.9347,1.9442,1.9484,1.9553,1.9604,1.9688,1.9688,1.9806,1.9776,1.9824,1.9866,1.987,1.9884,1.9882,1.9899,1.9934,1.9941,1.9895,1.9894,1.9893,0,1.8742,1.8887,1.8978,1.9024,1.9161,1.9201,1.926,1.9355,1.9412,1.9499,1.9537,1.9632,1.9685,1.9757,1.9833,1.9826,1.9944,1.995,1.9982,1.998,2.0004,2.0002,2.0049,2.0033,2.0033,2.0032,2.0032,0,1.878,1.885,1.897,1.9025,1.9106,1.9189,1.9266,1.933,1.9415,1.9484,1.9546,1.9609,1.9705,1.9781,1.984,1.993,1.9953,1.9989,2.0005,1.9985,1.998,2.0018,2.0017,2.0034,2.0034,2.0034,2.0033,0,1.8769,1.8852,1.8955,1.9077,1.9109,1.9164,1.9268,1.9325,1.939,1.9478,1.9503,1.9605,1.9698,1.9781,1.9903,1.9944,2.0036,2.0054,2.0004,2.0013,2.0041,2.0037,2.0114,2.0129,2.0101,2.0101,2.0101,0,1.8788,1.8844,1.8973,1.9024,1.9082,1.9164,1.9223,1.9308,1.9367,1.9482,1.9525,1.9623,1.9706,1.9852,1.9937,2.0032,2.0053,2.0074,2.0068,2.0047,2.0056,2.0052,2.0059,2.0073,2.0073,2.0073,2.0073,0,1.8814,1.8853,1.8936,1.9035,1.9105,1.9186,1.9269,1.9308,1.9408,1.9472,1.9569,1.9633,1.976,1.9857,1.9962,2.0023,2.0065,2.0075,2.0087,2.0068,2.0038,2.0057,2.0005,2.0072,2.0072,2.0073,2.0073,2.0073,1.882,1.8874,1.8974,1.9065,1.9137,1.9214,1.9275,1.9348,1.9431,1.9542,1.9586,1.9685,1.9782,1.9928,1.9989,2.0068,2.0076,2.0093,2.0098,2.0101,2.0099,2.0024,2.0087,2.0087,2.0087,2.0087,2.0088,0,1.8851,1.8919,1.9002,1.9118,1.9191,1.9225,1.932,1.9379,1.9465,1.9552,1.9634,1.9746,1.9842,1.9935,2.0035,2.0081,2.0103,2.0105,2.0103,2.0117,2.0085,2.0065,2.0085,2.0085,2.0085,2.0085,2.0085,2.0085,1.8875,1.8969,1.902,1.915,1.9218,1.9317,1.9368,1.944,1.9511,1.9634,1.9714,1.9775,1.9866,1.9974,2.0063,2.0088,2.0123,2.0119,2.015,2.0119,2.0118,2.0117,2.0099,2.0126,2.0126,2.0175,2.0175,2.0175]}]]